Location: Unspecified
(52.4292°N, 19.3359°E)
Time: 00:32:38
(UTC+02:00)

A-11 Canister half - Pass Details

Date: 19 May 2024
Orbit: 1515 x 1685 km, 47.2° (Epoch: 19 June)

Event Time Altitude Azimuth Distance (km) Brightness Sun altitude
Rises 08:24:56 0° 278° (W) 4,680 11.0 31.7°
Reaches altitude 10° 08:28:04 10° 274° (W) 3,687 10.6 32.1°
Maximum altitude 08:36:54 52° 202° (SSW) 1,826 9.8 33.5°
Drops below altitude 10° 08:45:44 10° 129° (SE) 3,693 12.1 34.8°
Sets 08:48:53 0° 125° (SE) 4,688 12.4 35.2°
